Location: Pasadena, ca
(34.1243°N, 118.1037°W)
Time: 03:29:10
(UTC-07:00)

Tiangong 1 - Pass Details

Date: 11 October 2017
Orbit: 293 x 320 km, 42.8° (Epoch: 21 October)

Event Time Altitude Azimuth Distance (km) Brightness Sun altitude
Rises 19:34:01 0° 304° (NW) 2,039 5.7 -15.5°
Reaches altitude 10° 19:36:35 10° 330° (NNW) 1,201 4.0 -16.1°
Maximum altitude 19:38:13 15° 8° (N) 971 3.0 -16.4°
Enters shadow 19:38:17 15° 10° (N) 971 3.0 -16.4°
